IZ1BLA-10 Weather Reports


time (UTC)temp
C
wind
direction
speed
KPH
gust
KPH
rain 1hr
cm
rain 24hr
cm
rain mn
cm
humidity
%
barometer
mb
20260507234921 10 0.0 0.0 0.00 0.00 0.00 97 1015.3
20260507233921 11 0.0 0.0 0.00 0.00 0.00 95 1015.2
20260507232921 11 0.0 0.0 0.00 0.00 0.00 97 1015.2
20260507231921 11 0.0 0.0 0.00 0.00 0.00 94 1015.1
20260507230921 11 0.0 0.0 0.00 0.00 0.00 97 1015.3
20260507225921 11 0.0 0.0 0.00 0.00 0.00 98 1015.6
20260507224922 11 0.0 0.0 0.00 0.00 0.00 97 1015.5
20260507223921 10 0.0 0.0 0.00 0.00 0.00 10 1015.5
20260507222920 11 0.0 0.0 0.00 0.00 0.00 10 1015.4
20260507221920 11 0.0 0.0 0.00 0.00 0.00 99 1015.3
20260507220920 11 0.0 0.0 0.00 0.00 0.00 10 1015.3
20260507215921 11 0.0 0.0 0.00 0.00 0.00 10 1015.2
20260507214921 11 0.0 0.0 0.00 0.00 0.00 10 1015.2
20260507213920 11 0.0 0.0 0.00 0.00 0.00 10 1014.8
20260507212921 11 0.0 0.0 0.00 0.00 0.00 10 1014.9
20260507211920 11 0.0 0.0 0.00 0.00 0.00 10 1014.5
20260507210921 11 0.0 0.0 0.00 0.00 0.00 10 1014.5
20260507205921 12 0.0 0.0 0.00 0.00 0.00 95 1014.3
20260507204920 12 0.0 0.0 0.00 0.00 0.00 99 1014.5
20260507203920 12 0.0 0.0 0.00 0.00 0.00 10 1014.5
20260507202920 11 0.0 0.0 0.00 0.00 0.00 10 1014.6
20260507201921 12 0.0 0.0 0.00 0.00 0.00 10 1014.2
20260507200920 11 0.0 0.0 0.00 0.00 0.00 10 1014.3
20260507195920 12 0.0 0.0 0.00 0.00 0.00 10 1014.2
20260507194921 13 0.0 0.0 0.00 0.00 0.00 92 1013.5
20260507193921 13 0.0 0.0 0.00 0.00 0.00 97 1013.5
20260507192922 15 0.0 0.0 0.00 0.00 0.00 82 1012.6
20260507191920 16 0.0 0.0 0.00 0.00 0.00 79 1012.3
20260507190920 16 0.0 0.0 0.00 0.00 0.00 72 1012.0
20260507185921 16 0.0 0.0 0.00 0.00 0.00 75 1012.1
20260507184920 17 0.0 0.0 0.00 0.00 0.00 67 1011.6
20260507183922 17 0.0 0.0 0.00 0.00 0.00 67 1011.7
20260507182921 17 0.0 0.0 0.00 0.00 0.00 66 1011.5
20260507181920 17 0.0 0.0 0.00 0.00 0.00 66 1011.3
20260507180921 15 0.0 0.0 0.00 0.00 0.00 74 1012.0
20260507175920 18 0.0 0.0 0.00 0.00 0.00 57 1010.9
20260507174920 19 0.0 0.0 0.00 0.00 0.00 52 1010.6
20260507173920 21 0.0 0.0 0.00 0.00 0.00 47 1010.0
20260507172921 19 0.0 0.0 0.00 0.00 0.00 50 1010.5
20260507171920 20 0.0 0.0 0.00 0.00 0.00 47 1010.1
20260507170921 20 0.0 0.0 0.00 0.00 0.00 47 1010.2
20260507165920 20 0.0 0.0 0.00 0.00 0.00 46 1010.1
20260507164920 20 0.0 0.0 0.00 0.00 0.00 46 1010.1
20260507163921 20 0.0 0.0 0.00 0.00 0.00 45 1010.0
20260507162920 21 0.0 0.0 0.00 0.00 0.00 44 1009.7
20260507161920 21 0.0 0.0 0.00 0.00 0.00 45 1009.9
20260507160920 20 0.0 0.0 0.00 0.00 0.00 46 1010.0
20260507155921 20 0.0 0.0 0.00 0.00 0.00 46 1009.9
20260507154920 20 0.0 0.0 0.00 0.00 0.00 46 1010.0
20260507153921 19 0.0 0.0 0.00 0.00 0.00 47 1010.2
20260507152921 20 0.0 0.0 0.00 0.00 0.00 46 1009.9
20260507151920 21 0.0 0.0 0.00 0.00 0.00 44 1009.7
20260507150921 20 0.0 0.0 0.00 0.00 0.00 44 1009.8
20260507145920 20 0.0 0.0 0.00 0.00 0.00 46 1010.0
20260507144921 20 0.0 0.0 0.00 0.00 0.00 46 1010.1
20260507143920 20 0.0 0.0 0.00 0.00 0.00 44 1009.9
20260507142920 21 0.0 0.0 0.00 0.00 0.00 43 1009.9
20260507141921 21 0.0 0.0 0.00 0.00 0.00 44 1010.0
20260507140920 21 0.0 0.0 0.00 0.00 0.00 44 1009.9
20260507135920 21 0.0 0.0 0.00 0.00 0.00 43 1010.1
20260507134920 21 0.0 0.0 0.00 0.00 0.00 43 1010.2
20260507133920 20 0.0 0.0 0.00 0.00 0.00 44 1010.5
20260507132920 21 0.0 0.0 0.00 0.00 0.00 44 1010.4
20260507131920 21 0.0 0.0 0.00 0.00 0.00 44 1010.4
20260507130920 21 0.0 0.0 0.00 0.00 0.00 43 1010.4
20260507125920 21 0.0 0.0 0.00 0.00 0.00 44 1010.3
20260507124920 20 0.0 0.0 0.00 0.00 0.00 46 1010.6
20260507123920 20 0.0 0.0 0.00 0.00 0.00 46 1010.7
20260507122919 20 0.0 0.0 0.00 0.00 0.00 45 1010.7
20260507121920 19 0.0 0.0 0.00 0.00 0.00 49 1011.1
20260507120920 20 0.0 0.0 0.00 0.00 0.00 48 1010.9
20260507115920 19 0.0 0.0 0.00 0.00 0.00 50 1011.2
20260507114920 17 0.0 0.0 0.00 0.00 0.00 54 1011.6
20260507113920 18 0.0 0.0 0.00 0.00 0.00 53 1011.7
20260507112920 18 0.0 0.0 0.00 0.00 0.00 51 1011.6
20260507111920 18 0.0 0.0 0.00 0.00 0.00 54 1012.1
20260507110920 17 0.0 0.0 0.00 0.00 0.00 54 1012.2
20260507105919 17 0.0 0.0 0.00 0.00 0.00 57 1012.5
20260507104920 16 0.0 0.0 0.00 0.00 0.00 59 1012.9
20260507103919 17 0.0 0.0 0.00 0.00 0.00 56 1012.6
20260507102920 17 0.0 0.0 0.00 0.00 0.00 55 1012.6
20260507101919 17 0.0 0.0 0.00 0.00 0.00 55 1012.6
20260507100920 16 0.0 0.0 0.00 0.00 0.00 59 1012.9
20260507095920 16 0.0 0.0 0.00 0.00 0.00 60 1013.1
20260507094919 16 0.0 0.0 0.00 0.00 0.00 60 1012.9
20260507093919 16 0.0 0.0 0.00 0.00 0.00 61 1012.8
20260507092920 15 0.0 0.0 0.00 0.00 0.00 62 1013.0
20260507091919 17 0.0 0.0 0.00 0.00 0.00 57 1012.5
20260507090919 16 0.0 0.0 0.00 0.00 0.00 61 1012.6
20260507085920 16 0.0 0.0 0.00 0.00 0.00 59 1012.7
20260507084920 16 0.0 0.0 0.00 0.00 0.00 58 1012.5
20260507083920 15 0.0 0.0 0.00 0.00 0.00 59 1012.6
20260507082919 15 0.0 0.0 0.00 0.00 0.00 61 1012.5
20260507081920 15 0.0 0.0 0.00 0.00 0.00 60 1012.6
20260507080920 15 0.0 0.0 0.00 0.00 0.00 61 1012.6
20260507075920 15 0.0 0.0 0.00 0.00 0.00 62 1012.7
20260507074920 16 0.0 0.0 0.00 0.00 0.00 58 1012.4
20260507073920 15 0.0 0.0 0.00 0.00 0.00 57 1012.5
20260507072920 14 0.0 0.0 0.00 0.00 0.00 62 1012.9
20260507071920 14 0.0 0.0 0.00 0.00 0.00 60 1012.7
20260507070920 13 0.0 0.0 0.00 0.00 0.00 58 1013.1
20260507065920 13 0.0 0.0 0.00 0.00 0.00 57 1013.1
20260507064920 13 0.0 0.0 0.00 0.00 0.00 54 1013.2
20260507063920 12 0.0 0.0 0.00 0.00 0.00 53 1013.2
20260507062920 12 0.0 0.0 0.00 0.00 0.00 52 1013.2
20260507061920 11 0.0 0.0 0.00 0.00 0.00 56 1013.4
20260507060920 11 0.0 0.0 0.00 0.00 0.00 55 1013.4
20260507055920 11 0.0 0.0 0.00 0.00 0.00 59 1013.6
20260507054919 11 0.0 0.0 0.00 0.00 0.00 55 1013.1
20260507053919 10 0.0 0.0 0.00 0.00 0.00 60 1013.3
20260507052919 10 0.0 0.0 0.00 0.00 0.00 59 1013.3
20260507051919 11 0.0 0.0 0.00 0.00 0.00 58 1012.9
20260507050919 11 0.0 0.0 0.00 0.00 0.00 62 1012.7
20260507045919 10 0.0 0.0 0.00 0.00 0.00 63 1012.8
20260507044919 10 0.0 0.0 0.00 0.00 0.00 64 1012.9
20260507043919 11 0.0 0.0 0.00 0.00 0.00 61 1012.5
20260507042919 11 0.0 0.0 0.00 0.00 0.00 60 1012.2
20260507041919 11 0.0 0.0 0.00 0.00 0.00 60 1012.2
20260507040919 11 0.0 0.0 0.00 0.00 0.00 59 1012.0
20260507035919 11 0.0 0.0 0.00 0.00 0.00 60 1012.0
20260507034919 11 0.0 0.0 0.00 0.00 0.00 62 1012.0
20260507033919 11 0.0 0.0 0.00 0.00 0.00 65 1012.3
20260507032919 11 0.0 0.0 0.00 0.00 0.00 64 1012.3
20260507031919 10 0.0 0.0 0.00 0.00 0.00 69 1012.6
20260507030919 10 0.0 0.0 0.00 0.00 0.00 69 1012.5
20260507025919 10 0.0 0.0 0.00 0.00 0.00 66 1012.2
20260507024919 11 0.0 0.0 0.00 0.00 0.00 64 1012.0
20260507023919 12 0.0 0.0 0.00 0.00 0.00 62 1011.6
20260507022919 12 0.0 0.0 0.00 0.00 0.00 63 1011.6
20260507021918 12 0.0 0.0 0.00 0.00 0.00 60 1011.3
20260507020918 11 0.0 0.0 0.00 0.00 0.00 63 1011.6
20260507015919 12 0.0 0.0 0.00 0.00 0.00 61 1011.2
20260507014918 13 0.0 0.0 0.00 0.00 0.00 60 1011.0
20260507013919 13 0.0 0.0 0.00 0.00 0.00 62 1011.1
20260507011919 14 0.0 0.0 0.00 0.00 0.00 65 1010.8
20260507010918 16 0.0 0.0 0.00 0.00 0.00 64 1010.3
20260507005918 16 0.0 0.0 0.00 0.00 0.00 67 1010.2
20260507004918 16 0.0 0.0 0.00 0.00 0.00 67 1010.3
20260507003919 16 0.0 0.0 0.00 0.00 0.00 69 1010.4
20260507002919 15 0.0 0.0 0.00 0.00 0.00 70 1010.5
20260507001919 16 0.0 0.0 0.00 0.00 0.00 67 1010.3
20260507000919 16 0.0 0.0 0.00 0.00 0.00 68 1010.3
20260506235919 16 0.0 0.0 0.00 0.00 0.00 66 1010.2